Weather in Lomaty

Russia / Republic of Mordovia     54°22′16″N   46°07′44″E
temp.,
°C
wind,
m/s
gust,
m/s
humid.,
%
clouds,
%
prec.,
mm/h
press.,
hPa
HPBL,
m
28 july, wed
wed2800:00+15w11782 0.0 101711
03:00+14wnw118361 0.0 101711
06:00+16w117527 0.0 101769
09:00+21n23575 0.1 1017697
12:00+24n33500 0.0 10161599
15:00+25nnw34421 0.0 10152222
18:00+23ne235744 0.0 101568
21:00+17se22645 0.0 101511
29 july, thu
thu2900:00+15s2270100 0.0 101420
03:00+17s2763100 0.0 1013156
06:00+16sw2587100 0.4 1012118
09:00+16sse3895100 2.4 1011265
12:00+18s51286100 0.4 1009633
15:00+22ssw71179100 1.1 1006932
18:00+22w5128318 2.1 1004593
21:00+17w26953 2.3 1006171
30 july, fri
fri3000:00+16wsw379721 0.0 1006174
03:00+15w389732 0.0 1007179
06:00+17wsw269399 0.0 1007186
09:00+23wsw356984 0.0 1007547
12:00+28wsw57495 0.0 10071786
15:00+24sw236358 0.0 100655
18:00+24wnw246453 0.0 1006114
21:00+18ene1497100 1.8 1007102
31 july, sat
sat3100:00+18sse119699 0.9 100618
03:00+17sw1196100 0.9 100611
06:00+18wsw259494 0.0 1006208
09:00+23w457848 0.0 1006823
12:00+26wnw565548 0.1 10061677
15:00+25w365764 0.1 10071013
18:00+24w49550 0.0 1007349
21:00+21sw225982 0.0 100917
1 august, sun
sun100:00+19ssw34625 0.0 100968
03:00+17ssw22715 0.0 101020
06:00+19wsw247245 0.0 1011128
09:00+24wsw34525 0.0 1011548
12:00+28wsw46416 0.0 10111912
15:00+29w57375 0.0 10102240
18:00+27wsw11570 0.0 101023
21:00+21s22590 0.0 101023